User: anonymous   Login
Location: Unspecified
(0.0000°N, 0.0000°E)
Time: 01:28:47
(UTC+00:00)
Language:

SR - Orbit

View from above orbital plane
View from above orbital plane
View from above satellite
View from above satellite

Ground track
Ground track

The orbit data is extracted from the following two-line orbital elements,

1    46U 60007B   19200.17835019 -.00000076  00000-0  81122-5 0  9992
2    46  66.6889 229.7244 0207784  18.2962 342.5477 14.49233388 90669
Epoch (UTC): 19 July 2019 04:16:49
Eccentricity: 0.0207784
inclination: 66.6889°
perigee height: 580 km
apogee height: 876 km
right ascension of ascending node: 229.7244°
argument of perigee: 18.2962°
revolutions per day: 14.49233388
mean anomaly at epoch: 342.5477°
orbit number at epoch: 9066

The dashed part of the orbit path shows where the satellite is in the earth's shadow,  

DLR